Torna al catalogo

THORAD AGENA D DEB

AttivoPO
NORAD 4611·DEBRIS·🇺🇸 United States

Lanciato Apr 8, 1970 da Vandenberg Space Force Base

Loading…

Prossimi Passaggi (prossime 24 ore)

TLE

AggiornatoSource: Space-Track

Epoca: Sep 14, 2026, 21:50 UTC

1 04611U 70025P   26257.91025158  .00000250  00000-0  17913-3 0  9990
2 04611  99.8762 269.4241 0123037 223.6106 135.5282 14.03866505868285

Traccia THORAD AGENA D DEB in tempo reale con AllMySat

Download on the App Store